Location: Boca do Mato
(22.9085°S, 43.2930°W)
Time: 22:06:55
(UTC+00:00)

ASTEX 1 - Pass Details

Date: 14 July 2020
Orbit: 719 x 745 km, 92.7° (Epoch: 10 August)

Event Time Altitude Azimuth Distance (km) Brightness Sun altitude
Rises 08:43:57 0° 12° (NNE) 3,112 7.1 -11.5°
Reaches altitude 10° 08:46:13 10° 14° (NNE) 2,198 6.3 -11.0°
Maximum altitude 08:51:03 70° 97° (E) 767 3.7 -10.0°
Drops below altitude 10° 08:55:56 10° 180° (S) 2,225 5.7 -8.9°
Sets 08:58:15 0° 182° (S) 3,155 6.5 -8.4°
